Volver al catálogo

SL-6 R/B(2)

ActivoHEO
NORAD 12827·ROCKET BODY·🇷🇺 Russia

Lanzado Sep 11, 1981 desde Plesetsk Cosmodrome

Loading…

Próximos Pases (próximas 24 horas)

TLE

ActualizadoSource: Space-Track

Época: Sep 14, 2026, 11:17 UTC

1 12827U 81088F   26257.47080106 -.00000023  00000-0  59570-4 0  9999
2 12827  62.8800 316.0659 4818345 241.8494  61.7413  5.48848779902060

Sigue SL-6 R/B(2) en tiempo real con AllMySat

Download on the App Store